Location: Caltech
(34.1382°N, 118.1253°W)
Time: 21:02:29
(UTC-07:00)

CZ-2C R/B - Visible Passes

Search period start: 30 October 2014 00:00
Search period end: 08 November 2014 23:00
Orbit: 668 x 787 km, 98.1° (Epoch: 29 October)

Date Brightness Start Highest point End Pass type
(mag) Time Alt. Az. Time Alt. Az. Time Alt. Az.
30 Oct 2.6 19:29:17 19° SE 19:32:32 45° ENE 19:37:05 10° N visible
30 Oct 5.1 21:08:46 12° WSW 21:10:56 15° W 21:13:45 10° WNW visible
31 Oct 3.9 18:42:39 10° E 18:45:19 15° ENE 18:47:56 10° NNE visible
31 Oct 3.1 20:21:17 32° SSW 20:23:10 50° W 20:27:48 10° NNW visible
01 Nov 2.5 19:33:43 31° SE 19:35:39 49° ENE 19:40:13 10° N visible
01 Nov 5.1 21:13:10 13° WSW 21:14:05 14° W 21:16:34 10° WNW visible
02 Nov 3.8 17:46:06 12° E 17:48:24 16° ENE 17:51:13 10° NNE visible
02 Nov 3.3 19:25:33 42° SW 19:26:18 45° W 19:30:51 10° NNW visible
03 Nov 2.4 18:37:53 46° ESE 18:38:46 53° ENE 18:43:21 10° N visible
03 Nov 5.2 20:17:20 13° W 20:17:20 13° W 20:19:17 10° WNW visible
04 Nov 3.7 17:50:11 15° E 17:51:30 17° ENE 17:54:29 10° NNE visible
04 Nov 3.5 19:29:39 41° W 19:29:39 41° W 19:33:53 10° NNW visible
05 Nov 2.3 18:41:55 58° ENE 18:41:55 58° ENE 18:46:28 10° N visible
05 Nov 5.4 20:21:22 11° W 20:21:22 11° W 20:21:52 10° WNW visible
06 Nov 3.6 17:54:10 18° ENE 17:54:35 18° ENE 17:57:44 10° NNE visible
06 Nov 3.8 19:33:37 33° WNW 19:33:37 33° WNW 19:36:55 10° NNW visible
07 Nov 2.5 18:45:50 52° NNE 18:45:50 52° NNE 18:49:35 10° N visible
08 Nov 3.6 17:58:02 19° ENE 17:58:02 19° ENE 18:00:58 10° NNE visible
08 Nov 4.2 19:37:29 26° WNW 19:37:29 26° WNW 19:39:56 10° NNW visible
